Tracking 21094 objects as of 12-Aug-2020
HD Live streaming from Space Station
objects crossing your sky now
Track the most recent launched group of Starlink satellites

ARIANE 2 DEB

Track ARIANE 2 DEB now!


NORAD ID: 28566
Int'l Code: 1989-006AH
Perigee: 732.9 km
Apogee: 35,331.3 km
Inclination: 6.8 °
Period: 632.3 minutes
Semi major axis: 24403 km
RCS: 0.1259 m2 (medium)
Launch date: January 27, 1989
Source: France (FR)
Launch site: FRENCH GUIANA (FRGUI)

Note: This is SATELLITE DEBRIS
aabbcc
Your satellite tracking list
Your tracking list is empty




NASA's NSSDC Master Catalog

Two Line Element Set (TLE):
1 28566U 89006AH  20224.35014016 +.00000077 +00000-0 +45416-2 0  9996
2 28566 006.8257 271.3917 7088946 095.1990 341.7504 02.27738322063719
Source of the keplerian elements: AFSPC